Location: Unspecified
(0.0000°N, 0.0000°E)
Time: 19:51:25
(UTC+00:00)

deb Briz - Pass Details

Date: 19 February 2026
Orbit: 1683 x 2323 km, 64.7° (Epoch: 11 March)

Event Time Altitude Azimuth Distance (km) Brightness Sun altitude
Rises 18:15:07 0° 202° (SSW) 5,580 ? -0.3°
Reaches altitude 10° 18:18:24 10° 202° (SSW) 4,647 ? -1.1°
Maximum altitude 18:30:56 88° 289° (WNW) 2,281 ? -4.2°
Drops below altitude 10° 18:44:14 10° 20° (NNE) 4,898 ? -7.5°
Sets 18:47:49 0° 21° (NNE) 5,890 ? -8.3°
